Regional Weather Roundup
Issued by NWS

Home | Current Version | Previous Version | Text Only | Print | Product List | Glossary On
Versions: 1 2 3 4 5 6 7 8 9 10 11 12 13 14 15 16 17 18 19 20 21 22 23 24 25 26 27 28 29 30 31 32 33 34 35 36 37 38 39 40 41 42 43 44 45 46 47 48 49 50
000
ASUS43 KDTX 280910
RWRMI
MICHIGAN HOURLY REGIONAL WEATHER ROUNDUP
NATIONAL WEATHER SERVICE DETROIT/PONTIAC MI
500 AM EDT SAT MAY 28 2016

NOTE: "FAIR" INDICATES FEW OR NO CLOUDS BELOW 12,000 FEET WITH NO
SIGNIFICANT WEATHER AND/OR OBSTRUCTION TO VISIBILITY.

MIZ047>049-052>055-059>063-066>070-074>076-081>083-281000-
SOUTHEAST LOWER MICHIGAN

CITY           SKY/WX    TMP DP  RH WIND       PRES   REMARKS
ADRIAN         CLEAR     68  61  78 CALM      30.00R
ALMA           PTCLDY    66  63  88 S7        29.96R
ANN ARBOR      CLEAR     58  58 100 CALM      29.99S FOG
BAD AXE        CLEAR     67  62  84 S7        29.97S
CARO           CLEAR     67  62  84 CALM      29.97R
DETROIT CITY   CLEAR     70  61  73 CALM      29.99S
DETROIT        MOCLDY    68  62  81 CALM      30.00R
FLINT          CLEAR     73  61  65 S6        29.98R
GROSSE ILE     CLEAR     66  63  88 CALM      29.98S
HILLSDALE      PTCLDY    68  59  72 S3        29.99S
HOWELL         CLEAR     69  61  76 S3        29.99R

CITY           SKY/WX    TMP DP  RH WIND       PRES   REMARKS
JACKSON        CLEAR     70  62  76 S7        29.98S
LAMBERTVILLE   CLEAR     71  62  73 S3        30.00R
LANSING        CLEAR     68  60  75 S7        29.97R
LAPEER         FAIR      66  59  79 SE5       29.99R
MASON          CLEAR     67  60  78 SE5       29.98R
MONROE         CLEAR     66  62  89 S9        29.99R
MT. CLEMENS    CLEAR     62  62  99 E1        29.99R
PONTIAC        CLEAR     65  60  84 CALM      30.00R
PORT HOPE        N/A     70  63  78 VRB5      29.95R
PORT HURON     CLEAR     61  61 100 CALM      30.00S
TRI CITIES     CLEAR     73  62  68 S7        29.96R
MIDLAND        FAIR      65  65  97 CALM      29.95R
TROY           CLEAR     69  63  81 CALM      30.01S
SAGINAW HB     CLEAR     72  61  68 S7        29.96R
$$
MIZ043>046-050>051-056>058-064>065-071>073-077>080-281000-
SOUTHWEST LOWER MICHIGAN

CITY           SKY/WX    TMP DP  RH WIND       PRES   REMARKS
BATTLE CREEK   CLEAR     68  60  75 S9        29.96S
BENTON HARBOR  CLOUDY    70  64  81 SE5       29.91S
BIG RAPIDS     CLOUDY    66  65  97 S5        29.94R
COLDWATER      CLEAR     69  62  77 S6        29.97S
FREMONT        MOCLDY    67  67 100 SE3       29.92R
HOLLAND        CLOUDY    69  65  86 SE6       29.93R
GRAND RAPIDS   CLOUDY    69  63  81 S5        29.94R
IONIA          FAIR      65  59  80 SE7       29.95R
KALAMAZOO      CLOUDY    72  59  63 S6        29.95S
LUDINGTON      CLOUDY    70  64  79 S12G18    29.88S
MARSHALL       CLEAR     70  61  73 S6        29.96S
MOUNT PLEASANT FOG       64  64  99 CALM      29.95R VSB 1
MUSKEGON       CLOUDY    72  63  73 SE9       29.91R
SOUTH HAVEN    CLOUDY    70  66  86 SE3       29.92S
$$
MIZ016>042-281000-
NORTHERN LOWER MICHIGAN

CITY           SKY/WX    TMP DP  RH WIND       PRES   REMARKS
ALPENA         CLOUDY    63  61  93 SE3       29.94S
BEAVER ISLAND  MOCLDY    64  63  97 SE7       29.87S
BELLAIRE       CLOUDY    70  65  85 S6        29.89S
CADILLAC       PTCLDY    67  64  89 S9        29.93S
CHARLEVOIX     CLOUDY    68  67  96 SE6       29.91F
FRANKFORT      CLOUDY    69  66  88 S8G16     29.87R
GAYLORD        CLOUDY    68  64  87 S8        29.94S
GRAYLING       CLOUDY    66  65  97 SE3       29.96R FOG
HARBOR SPRINGS CLOUDY    67  65  95 NE5       29.90S
HOUGHTON LAKE  CLOUDY    66  65  96 SE6       29.96S
MANISTEE       CLOUDY    68  63  83 S3        29.89R
OSCODA         CLOUDY    64  60  84 CALM      29.95S
PELLSTON       CLOUDY    67  64  90 SE7       29.91S
ROGERS CITY    MOCLDY    64  61  89 CALM      29.94S
TRAVERSE CITY  CLOUDY    71  65  81 VRB3      29.87S
$$
MIZ007>008-015-281000-
EASTERN UPPER MICHIGAN

CITY           SKY/WX    TMP DP  RH WIND       PRES   REMARKS
KINROSS          N/A     61  61 100 E6        29.91S
MACKINAC ISLAN DRIZZLE   55  55 100 E8        29.90F
NEWBERRY       CLOUDY    62  61  97 SE6       29.87F
S. S. MARIE    RAIN      61  59  93 E7        29.93S FOG
MUNISING         N/A     65  63  93 S6        29.81F
$$
MIZ004>006-011>014-085-281000-
CENTRAL UPPER MICHIGAN

CITY           SKY/WX    TMP DP  RH WIND       PRES   REMARKS
MANISTIQUE     CLOUDY    60  59  97 SE8       29.85S FOG
ESCANABA       CLOUDY    59  57  94 S7        29.82S
MENOMINEE      CLOUDY    61  59  94 SE6       29.82R
SAWYER-GWINN   FOG       62  61  96 S8        29.82S VSB 1/2
$$
MIZ001>003-009>011-084-281000-
WESTERN UPPER MICHIGAN

CITY           SKY/WX    TMP DP  RH WIND       PRES   REMARKS
IRON MOUNTAIN  FOG       62  61  96 SE3       29.80S VSB 1/4
HOUGHTON       FOG       54  54 100 E5        29.79F VSB 1/2
COPPER HARBOR    N/A     60  60 100 S10G17    29.78F
IRONWOOD       CLOUDY    61  59  94 CALM      29.73S
$$

ABBREVIATIONS USED IN REMARKS
   TC - TEMPERATURE IN CELSIUS
  WCI - WIND CHILL INDEX
   HX - HEAT INDEX
  VSB - VISIBILITY





USA.gov is the U.S. government's official web portal to all federal, state and local government web resources and services.